Regional Weather Roundup
Issued by NWS

Home | Current Version | Previous Version | Graphics & Text | Print | Product List | Glossary On
Versions: 1 2 3 4 5 6 7 8 9 10 11 12 13 14 15 16 17 18 19 20 21 22 23 24 25 26 27 28 29 30 31 32 33 34 35 36 37 38 39 40 41 42 43 44 45 46 47 48 49 50
000
ASUS43 KMPX 121810
RWRMN
WEATHER ROUNDUP FOR MINNESOTA
NATIONAL WEATHER SERVICE TWIN CITIES/CHANHASSEN MN
100 PM CDT SAT JUL 12 2014


NOTE: "FAIR" INDICATES FEW OR NO CLOUDS BELOW 12,000 FEET WITH NO
SIGNIFICANT WEATHER AND/OR OBSTRUCTIONS TO VISIBILITY. N/A MEANS
CURRENT SKY AND/OR WEATHER CONDITIONS ARE NOT AVAILABLE.

MNZ060>063-068>070-121900-
   Twin Cities Metro

CITY           SKY/WX    TMP DP  RH WIND       PRES   REMARKS
TWIN CITIES    CLOUDY    78  64  61 W3        29.97S
6HR MIN TEMP:  71; 6HR MAX TEMP:  80;

ST PAUL        CLOUDY    78  71  79 CALM      29.96F
CRYSTAL        TSTM      72  66  81 SW12      29.97S
BLAINE         PTSUNNY   77  73  88 CALM      29.97F
LAKEVILLE      LGT RAIN  73  72  94 S3        30.00R
EDEN PRAIRIE   CLOUDY    73  67  81 SW6       29.98R
6HR MIN TEMP:  70; 6HR MAX TEMP:  76; 6HR PCP:  0.01;

SOUTH ST PAUL  CLOUDY    77  71  80 CALM      29.97R
LAKE ELMO      CLOUDY    77  72  83 CALM      29.98F
$$
MNZ001>005-007-008-013>017-022>024-027-028-121900-
   Northwest Minnesota

CITY           SKY/WX    TMP DP  RH WIND       PRES   REMARKS
BEMIDJI        CLOUDY    73  57  56 SW9       30.00F
HALLOCK        MOSUNNY   75  52  43 W16       29.95F
ROSEAU         MOSUNNY   73  59  60 W13G21    29.95F
WARROAD        PTSUNNY   73  59  60 SW13G21   29.95F
THIEF RVR FALL CLOUDY    72  55  56 W14       29.99F
CROOKSTON      CLOUDY    73  57  56 W10       30.00F
FOSSTON        CLOUDY    72  54  53 W10       30.02F
DETROIT LAKES  CLOUDY    72  57  60 W10       30.04F
MOORHEAD       CLOUDY    73  57  56 W9        30.02F
PARK RAPIDS    CLOUDY    72  59  63 W9        30.01F
$$
MNZ006-009>011-018-025>026-121900-
   North Central Minnesota

CITY           SKY/WX    TMP DP  RH WIND       PRES   REMARKS
BAUDETTE       PTSUNNY   74  55  51 SW12G17   29.96F
FLAG ISLAND    PTSUNNY   72  57  60 S12       29.91F
INTL FALLS     PTSUNNY   72  52  49 W6        29.96F
6HR MIN TEMP:  57; 6HR MAX TEMP:  74;

WASKISH        CLOUDY    72  59  64 SW8       29.99F
BIG FORK       CLOUDY    75  54  46 W7        29.99F
LONGVILLE      CLOUDY    72  59  64 SW5       30.00F
GRAND RAPIDS   CLOUDY    70  55  60 SW3       30.00F
CRANE LAKE     PTSUNNY   70  55  60 CALM      29.98F
ORR            PTSUNNY   73  54  49 NW6       29.95F
COOK           CLOUDY    72  54  53 W5        29.98F
$$
MNZ012-019>021-037-121900-
   Northeast Minnesota

CITY           SKY/WX    TMP DP  RH WIND       PRES   REMARKS
DULUTH         CLOUDY    74  57  55 VRB3      29.98F
6HR MIN TEMP:  63; 6HR MAX TEMP:  74;

ELY            PTSUNNY   70  54  56 W5        29.98S
HIBBING        CLOUDY    73  54  51 W6        29.99S
EVELETH        CLOUDY    72  55  56 W5        30.00F
DULUTH HARBOR  CLOUDY    70  61  73 CALM      29.97F
TWO HARBORS    CLOUDY    70  57  64 S6        29.96F
SILVER BAY     CLOUDY    70  63  78 S6        29.96S
GRAND MARAIS     N/A     52  48  86 SW5       29.95S
G MARAIS ARPRT CLOUDY    70  52  52 SW5       29.98F
$$
MNZ029>031-032-039>041-046>048-054>057-064-121900-
   West Central Minnesota

CITY           SKY/WX    TMP DP  RH WIND       PRES   REMARKS
FERGUS FALLS   CLOUDY    70  61  73 W6        30.03F
WHEATON        LGT RAIN  66  63  88 SW3       30.06F
MORRIS         LGT RAIN  70  63  78 NW7       30.05F
ALEXANDRIA     LGT RAIN  68  63  84 W8        30.07S
ELBOW LAKE     FAIR      68  61  77 W7        30.04F
WADENA         CLOUDY    70  61  73 W8        30.04R
GLENWOOD       LGT RAIN  68  63  83 W10       30.07R
APPLETON       LGT RAIN  72  63  73 W8        30.05F
BENSON         LGT RAIN  70  61  73 N10       30.06S
ORTONVILLE     LGT RAIN  70  61  73 CALM      30.07S
MADISON        LGT RAIN  72  64  78 NW3       30.06F
WILLMAR        LGT RAIN  70  66  88 W13G18    30.05S
$$
MNZ033>034-036-042>043-049>051-058-059-121900-
   Central Minnesota

CITY           SKY/WX    TMP DP  RH WIND       PRES   REMARKS
ST CLOUD       CLOUDY    76  64  66 W6        30.00S
6HR MIN TEMP:  69; 6HR MAX TEMP:  76;

SAUK CENTRE    LGT RAIN  69  62  78 W8        30.05R
PAYNESVILLE    HVY RAIN  69  63  81 SW10G16   30.04S
AITKIN         CLOUDY    73  63  68 CALM      30.00S
PINE RIVER     CLOUDY    70  61  73 CALM      30.04F
BRAINERD       CLOUDY    74  59  59 CALM      30.01F
STAPLES        CLOUDY    70  61  73 W7        30.03F
LONG PRAIRIE   LGT RAIN  68  61  77 W8        30.05R
LITTLE FALLS   DRIZZLE   68  61  77 W7        30.03R
LITCHFIELD     CLOUDY    73  70  88 W7        30.02R
BUFFALO        CLOUDY    71  64  77 NW3       30.01R
MAPLE LAKE     CLOUDY    72  67  84 NW3       30.01S
$$
MNZ037-044-045-052-053-121900-
   East Central Minnesota

CITY           SKY/WX    TMP DP  RH WIND       PRES   REMARKS
PRINCETON      CLOUDY    75  64  69 W3        29.99F
MORA           CLOUDY    73  59  60 CALM      30.00F
CAMBRIDGE      CLOUDY    75  63  64 N3        29.96F
RUSH CITY      CLOUDY    74  63  69 CALM      29.98F
MOOSE LAKE     CLOUDY    72  57  60 CALM      29.97S
HINCKLEY       FAIR      73  63  68 CALM      29.98F
CLOQUET        CLOUDY    72  55  56 NW3       29.98F
MCGREGOR       CLOUDY    70  57  64 CALM      30.01S
$$
MNZ071>073-080-081-089-090-097-098-121900-
   Southwest Minnesota

CITY           SKY/WX    TMP DP  RH WIND       PRES   REMARKS
MONTEVIDEO     DRIZZLE   68  68 100 N8        30.07R
GRANITE FALLS  LGT RAIN  68  65  92 W9        30.05F
CANBY          LGT RAIN  66  64  93 CALM      30.08S
MARSHALL       CLOUDY    66  63  88 NW5       30.04F
REDWOOD FALLS  CLOUDY    69  67  93 NW3       30.03F
OLIVIA         LGT RAIN  70  66  88 NW6       30.02F
PIPESTONE      CLOUDY    73  63  68 NE9       30.07F
WINDOM         PTSUNNY   79  64  61 NW7       30.04F
WORTHINGTON    PTSUNNY   70  66  88 W7        30.07S
JACKSON        PTSUNNY   73  64  73 SW10      30.05F
TRACY          CLOUDY    68  65  92 W6        30.06F
SLAYTON        CLOUDY    70  64  79 CALM      30.07F
$$
MNZ065>067-074>077-082>085-091>093-121900-
   South Central Minnesota

CITY           SKY/WX    TMP DP  RH WIND       PRES   REMARKS
MANKATO        CLOUDY    70  63  78 W15G22    30.03R
NEW ULM        CLOUDY    70  68  94 N9        30.02R
ST JAMES       CLOUDY    77  66  69 SW7       30.04R
FAIRMONT       CLOUDY    70  63  78 W13       30.05F
GLENCOE        RAIN      71  67  88 CALM      30.02R
FARIBAULT      LGT RAIN  77  59  53 S12G17    30.03R
OWATONNA       CLOUDY    72  64  78 S8        30.03R
WASECA         CLOUDY    72  63  73 SW14      30.05R
ALBERT LEA     RAIN      68  64  88 NW8       30.03S
$$
MNZ078>079-086>088-094>096-121900-
   Southeast Minnesota

CITY           SKY/WX    TMP DP  RH WIND       PRES   REMARKS
ROCHESTER      LGT RAIN  72  68  87 NW13      30.02S FOG
6HR MIN TEMP:  69; 6HR MAX TEMP:  74; 6HR PCP:  0.06;

RED WING       LGT RAIN  75  72  88 SW5       29.97R
STANTON        LGT RAIN  77  71  84 S5        29.99R
DODGE CENTER   RAIN      68  63  83 NW10      30.04R
WINONA         LGT RAIN  73  72  94 S3        29.98R
AUSTIN         RAIN      70  64  83 NW9       30.03S
PRESTON        RAIN      74  71  89 NW5       30.02S
$$
ABBREVIATIONS USED IN REMARKS
   TC - TEMPERATURES IN CELSIUS
  WCI - WIND CHILL INDEX
   HX - HEAT INDEX
  VSB - VISIBILITY
$$


USA.gov is the U.S. government's official web portal to all federal, state and local government web resources and services.